Time,TemperatureF,DewpointF,PressureIn,WindDirection,WindDirectionDegrees,WindSpeedMPH,WindSpeedGustMPH,Humidity,HourlyPrecipIn,Conditions,Clouds,dailyrainin,SoftwareType,DateUTC
2013-02-13 00:00:00,46.0,44.5,29.91,SW,225,1.0,5.0,95,0.03,,SKC,0.10,VWS V14.01,2013-02-13 02:00:00,
2013-02-13 00:10:00,45.6,44.0,29.93,NE,49,0.0,4.0,95,0.03,,,0.11,weatherlink.com 1.10,2013-02-13 02:10:00,
2013-02-13 00:15:00,46.0,44.2,29.94,NE,45,1.0,4.0,95,0.04,,SKC,0.12,VWS V14.01,2013-02-13 02:15:00,
2013-02-13 00:24:00,45.5,44.0,29.91,NNE,15,3.0,3.0,95,0.06,,,0.14,weatherlink.com 1.10,2013-02-13 02:24:00,
2013-02-13 00:30:00,46.0,44.2,29.93,NE,45,2.0,4.0,95,0.06,,SKC,0.14,VWS V14.01,2013-02-13 02:30:00,
2013-02-13 00:39:00,45.2,44.0,29.93,NNW,335,0.0,4.0,95,0.08,,,0.16,weatherlink.com 1.10,2013-02-13 02:39:00,
2013-02-13 00:45:00,45.0,44.0,29.92,NNW,338,2.0,4.0,95,0.09,,SKC,0.17,VWS V14.01,2013-02-13 02:45:00,
2013-02-13 00:54:00,44.9,44.0,29.91,NNE,23,3.0,4.0,95,0.09,,,0.18,weatherlink.com 1.10,2013-02-13 02:54:00,
2013-02-13 01:00:00,45.0,43.7,29.90,NNE,22,3.0,6.0,95,0.10,,SKC,0.18,VWS V14.01,2013-02-13 03:00:00,
2013-02-13 01:09:00,44.7,43.0,29.92,North,11,2.0,5.0,95,0.08,,,0.18,weatherlink.com 1.10,2013-02-13 03:09:00,
2013-02-13 01:15:00,45.0,43.4,29.91,NNE,22,2.0,5.0,95,0.08,,SKC,0.18,VWS V14.01,2013-02-13 03:15:00,
2013-02-13 01:24:00,44.3,43.0,29.91,ENE,63,0.0,6.0,95,0.04,,,0.18,weatherlink.com 1.10,2013-02-13 03:24:00,
2013-02-13 01:30:00,44.0,43.0,29.91,ENE,68,2.0,6.0,95,0.06,,SKC,0.18,VWS V14.01,2013-02-13 03:30:00,
2013-02-13 01:39:00,44.0,42.0,29.91,NNE,28,2.0,4.0,94,0.02,,,0.18,weatherlink.com 1.10,2013-02-13 03:39:00,
2013-02-13 01:45:00,44.0,42.4,29.92,NE,45,2.0,5.0,94,0.04,,SKC,0.18,VWS V14.01,2013-02-13 03:45:00,
2013-02-13 01:54:00,43.7,42.0,29.91,NE,37,0.0,5.0,94,0.00,,,0.18,weatherlink.com 1.10,2013-02-13 03:54:00,
2013-02-13 02:00:00,44.0,42.1,29.90,NE,45,2.0,5.0,94,0.01,,SKC,0.18,VWS V14.01,2013-02-13 04:00:00,
2013-02-13 02:09:00,43.6,42.0,29.89,North,9,3.0,4.0,94,0.00,,,0.18,weatherlink.com 1.10,2013-02-13 04:09:00,
2013-02-13 02:15:00,43.0,41.6,29.88,NNE,22,3.0,7.0,93,0.00,,SKC,0.18,VWS V14.01,2013-02-13 04:15:00,
2013-02-13 02:24:00,43.2,41.0,29.87,NNE,30,2.0,7.0,93,0.00,,,0.18,weatherlink.com 1.10,2013-02-13 04:24:00,
2013-02-13 02:30:00,43.0,41.3,29.86,NNE,22,4.0,8.0,93,0.00,,SKC,0.18,VWS V14.01,2013-02-13 04:30:00,
2013-02-13 02:39:00,43.2,41.0,29.86,NNE,12,3.0,7.0,93,0.00,,,0.18,weatherlink.com 1.10,2013-02-13 04:39:00,
2013-02-13 02:45:00,43.0,41.3,29.85,North,0,4.0,7.0,93,0.00,,SKC,0.18,VWS V14.01,2013-02-13 04:45:00,
2013-02-13 02:54:00,43.4,42.0,29.86,North,355,3.0,7.0,93,0.00,,,0.18,weatherlink.com 1.10,2013-02-13 04:54:00,
2013-02-13 03:00:00,44.0,41.5,29.87,North,0,4.0,7.0,93,0.00,,SKC,0.00,VWS V14.01,2013-02-13 05:00:00,
2013-02-13 03:09:00,43.6,42.0,29.87,North,5,5.0,7.0,93,0.00,,,0.00,weatherlink.com 1.10,2013-02-13 05:09:00,
2013-02-13 03:15:00,44.0,41.7,29.86,NNE,22,3.0,7.0,93,0.00,,SKC,0.00,VWS V14.01,2013-02-13 05:15:00,
2013-02-13 03:24:00,43.5,42.0,29.85,North,350,2.0,6.0,93,0.00,,,0.00,weatherlink.com 1.10,2013-02-13 05:24:00,
2013-02-13 03:30:00,43.0,41.6,29.86,North,0,3.0,6.0,93,0.00,,SKC,0.00,VWS V14.01,2013-02-13 05:30:00,
2013-02-13 03:39:00,43.4,42.0,29.85,NE,34,2.0,6.0,94,0.00,,,0.00,weatherlink.com 1.10,2013-02-13 05:39:00,
2013-02-13 03:45:00,43.0,41.5,29.84,North,0,3.0,6.0,93,0.00,,SKC,0.00,VWS V14.01,2013-02-13 05:45:00,
2013-02-13 03:54:00,43.3,42.0,29.84,NE,38,4.0,6.0,93,0.00,,,0.00,weatherlink.com 1.10,2013-02-13 05:54:00,
2013-02-13 04:00:00,43.0,41.4,29.83,NNE,22,3.0,6.0,93,0.00,,SKC,0.00,VWS V14.01,2013-02-13 06:00:00,
2013-02-13 04:10:00,43.2,41.0,29.83,North,355,3.0,6.0,93,0.00,,,0.00,weatherlink.com 1.10,2013-02-13 06:10:00,
2013-02-13 04:15:00,43.0,41.3,29.82,North,0,3.0,6.0,93,0.00,,SKC,0.00,VWS V14.01,2013-02-13 06:15:00,
2013-02-13 04:24:00,43.1,41.0,29.84,WNW,302,3.0,7.0,93,0.00,,,0.00,weatherlink.com 1.10,2013-02-13 06:24:00,
2013-02-13 04:30:00,43.0,41.2,29.84,North,0,3.0,7.0,93,0.00,,SKC,0.00,VWS V14.01,2013-02-13 06:30:00,
2013-02-13 04:39:00,43.1,41.0,29.83,North,5,2.0,6.0,92,0.00,,,0.00,weatherlink.com 1.10,2013-02-13 06:39:00,
2013-02-13 04:45:00,43.0,40.9,29.83,North,0,3.0,6.0,92,0.00,,SKC,0.00,VWS V14.01,2013-02-13 06:45:00,
2013-02-13 04:54:00,43.1,41.0,29.83,ENE,57,3.0,5.0,92,0.00,,,0.00,weatherlink.com 1.10,2013-02-13 06:54:00,
2013-02-13 05:00:00,43.0,40.9,29.84,NNE,22,3.0,7.0,92,0.00,,SKC,0.00,VWS V14.01,2013-02-13 07:00:00,
2013-02-13 05:10:00,43.0,41.0,29.83,West,275,3.0,8.0,92,0.00,,,0.00,weatherlink.com 1.10,2013-02-13 07:10:00,
2013-02-13 05:15:00,43.0,40.8,29.84,NE,45,3.0,8.0,92,0.00,,SKC,0.00,VWS V14.01,2013-02-13 07:15:00,
2013-02-13 05:25:00,43.0,41.0,29.83,NNW,340,2.0,6.0,91,0.00,,,0.00,weatherlink.com 1.10,2013-02-13 07:25:00,
2013-02-13 05:30:00,43.0,40.6,29.82,NE,45,2.0,6.0,91,0.00,,SKC,0.00,VWS V14.01,2013-02-13 07:30:00,
2013-02-13 05:40:00,42.9,41.0,29.81,NNE,26,1.0,4.0,91,0.00,,,0.00,weatherlink.com 1.10,2013-02-13 07:40:00,
2013-02-13 05:45:00,43.0,40.7,29.81,NNE,22,2.0,5.0,92,0.00,,SKC,0.00,VWS V14.01,2013-02-13 07:45:00,
2013-02-13 05:55:00,42.7,41.0,29.81,North,355,1.0,5.0,92,0.00,,,0.00,weatherlink.com 1.10,2013-02-13 07:55:00,
2013-02-13 06:00:00,43.0,40.6,29.81,North,0,2.0,5.0,92,0.00,,SKC,0.00,VWS V14.01,2013-02-13 08:00:00,
2013-02-13 06:10:00,42.7,41.0,29.80,NE,50,2.0,6.0,92,0.01,,,0.01,weatherlink.com 1.10,2013-02-13 08:10:00,
2013-02-13 06:15:00,43.0,40.5,29.80,NE,45,3.0,6.0,92,0.01,,SKC,0.01,VWS V14.01,2013-02-13 08:15:00,
2013-02-13 06:25:00,42.5,40.0,29.80,NNE,17,1.0,5.0,92,0.01,,,0.01,weatherlink.com 1.10,2013-02-13 08:25:00,
2013-02-13 06:30:00,43.0,40.3,29.80,NNW,338,2.0,5.0,92,0.01,,SKC,0.01,VWS V14.01,2013-02-13 08:30:00,
2013-02-13 06:40:00,42.4,40.0,29.80,NNE,18,2.0,4.0,92,0.01,,,0.01,weatherlink.com 1.10,2013-02-13 08:40:00,
2013-02-13 06:45:00,42.0,40.2,29.79,NNE,22,2.0,4.0,92,0.01,,SKC,0.01,VWS V14.01,2013-02-13 08:45:00,
2013-02-13 06:55:00,42.3,41.0,29.78,NNE,21,2.0,3.0,93,0.01,,,0.01,weatherlink.com 1.10,2013-02-13 08:55:00,
2013-02-13 07:00:00,42.0,40.4,29.79,NNE,22,2.0,3.0,93,0.01,,SKC,0.01,VWS V14.01,2013-02-13 09:00:00,
2013-02-13 07:10:00,42.2,40.0,29.80,SW,229,0.0,5.0,93,0.00,,,0.01,weatherlink.com 1.10,2013-02-13 09:10:00,
2013-02-13 07:15:00,42.0,40.6,29.80,NE,45,3.0,6.0,94,0.01,,SKC,0.01,VWS V14.01,2013-02-13 09:15:00,
2013-02-13 07:25:00,42.1,41.0,29.79,WNW,294,3.0,6.0,94,0.00,,,0.01,weatherlink.com 1.10,2013-02-13 09:25:00,
2013-02-13 07:30:00,42.0,40.3,29.78,NE,45,2.0,6.0,93,0.00,,SKC,0.01,VWS V14.01,2013-02-13 09:30:00,
2013-02-13 07:40:00,42.1,40.0,29.77,NNE,16,3.0,5.0,93,0.00,,,0.01,weatherlink.com 1.10,2013-02-13 09:40:00,
2013-02-13 07:45:00,42.0,40.2,29.76,North,0,3.0,5.0,93,0.00,,SKC,0.01,VWS V14.01,2013-02-13 09:45:00,
2013-02-13 07:55:00,42.0,40.0,29.77,NNE,22,3.0,6.0,93,0.00,,,0.01,weatherlink.com 1.10,2013-02-13 09:55:00,
2013-02-13 08:00:00,42.0,40.2,29.77,North,0,3.0,6.0,93,0.00,,SKC,0.01,VWS V14.01,2013-02-13 10:00:00,
2013-02-13 08:10:00,42.0,40.0,29.76,North,5,2.0,5.0,93,0.00,,,0.01,weatherlink.com 1.10,2013-02-13 10:10:00,
2013-02-13 08:15:00,42.0,40.1,29.76,North,0,3.0,6.0,93,0.00,,SKC,0.01,VWS V14.01,2013-02-13 10:15:00,
2013-02-13 08:25:00,41.9,40.0,29.77,NNW,340,3.0,5.0,93,0.00,,,0.01,weatherlink.com 1.10,2013-02-13 10:25:00,
2013-02-13 08:30:00,42.0,40.3,29.77,North,0,2.0,5.0,94,0.00,,SKC,0.01,VWS V14.01,2013-02-13 10:30:00,
2013-02-13 08:40:00,41.7,40.0,29.75,North,351,2.0,8.0,94,0.00,,,0.01,weatherlink.com 1.10,2013-02-13 10:40:00,
2013-02-13 08:45:00,42.0,40.1,29.76,North,0,3.0,8.0,94,0.00,,SKC,0.01,VWS V14.01,2013-02-13 10:45:00,
2013-02-13 08:55:00,41.6,40.0,29.75,NNE,14,2.0,5.0,94,0.00,,,0.01,weatherlink.com 1.10,2013-02-13 10:55:00,
2013-02-13 09:00:00,42.0,40.0,29.74,North,0,3.0,5.0,94,0.00,,SKC,0.01,VWS V14.01,2013-02-13 11:00:00,
2013-02-13 09:10:00,41.5,40.0,29.75,North,5,2.0,5.0,94,0.00,,,0.01,weatherlink.com 1.10,2013-02-13 11:10:00,
2013-02-13 09:15:00,42.0,39.9,29.75,North,0,2.0,5.0,94,0.00,,SKC,0.01,VWS V14.01,2013-02-13 11:15:00,
2013-02-13 09:25:00,41.4,40.0,29.76,North,349,0.0,3.0,94,0.00,,,0.01,weatherlink.com 1.10,2013-02-13 11:25:00,
2013-02-13 09:37:00,42.0,39.9,29.75,North,0,2.0,5.0,94,0.00,,SKC,0.01,VWS V14.01,2013-02-13 11:37:00,
2013-02-13 09:42:00,41.0,40.1,29.75,North,351,3.0,3.0,95,0.10,,SKC,0.01,VWS V14.01,2013-02-13 11:42:00,
2013-02-13 09:47:00,41.0,40.1,29.75,North,9,2.0,2.0,95,0.10,,SKC,0.01,VWS V14.01,2013-02-13 11:47:00,
2013-02-13 09:52:00,41.0,40.0,29.76,North,5,1.0,3.0,95,0.10,,SKC,0.01,VWS V14.01,2013-02-13 11:52:00,
2013-02-13 09:57:00,41.0,40.1,29.76,North,5,2.0,3.0,95,0.10,,SKC,0.01,VWS V14.01,2013-02-13 11:57:00,
2013-02-13 10:02:00,41.0,40.1,29.77,North,5,1.0,2.0,95,0.10,,SKC,0.01,VWS V14.01,2013-02-13 12:02:00,
2013-02-13 10:14:00,41.3,40.0,29.75,NNE,13,2.0,5.0,95,0.00,,,0.01,weatherlink.com 1.10,2013-02-13 12:14:00,
2013-02-13 10:15:00,41.0,40.0,29.75,NNE,22,2.0,5.0,95,0.10,,SKC,0.01,VWS V14.01,2013-02-13 12:15:00,
2013-02-13 10:29:00,41.2,40.0,29.74,NNE,16,2.0,4.0,95,0.00,,,0.01,weatherlink.com 1.10,2013-02-13 12:29:00,
2013-02-13 10:30:00,41.0,40.0,29.75,NNE,22,2.0,5.0,95,0.10,,SKC,0.01,VWS V14.01,2013-02-13 12:30:00,
2013-02-13 10:44:00,41.2,40.0,29.75,NNW,346,1.0,4.0,95,0.01,,,0.02,weatherlink.com 1.10,2013-02-13 12:44:00,
2013-02-13 10:45:00,41.0,39.9,29.75,NW,315,2.0,5.0,95,0.01,,SKC,0.02,VWS V14.01,2013-02-13 12:45:00,
2013-02-13 11:00:00,41.2,40.0,29.77,NNW,340,1.0,4.0,96,0.01,,,0.02,weatherlink.com 1.10,2013-02-13 13:00:00,
2013-02-13 11:14:00,41.2,40.0,29.73,NE,52,1.0,4.0,96,0.01,,,0.02,weatherlink.com 1.10,2013-02-13 13:14:00,
2013-02-13 11:15:00,41.0,40.0,29.74,NE,45,2.0,4.0,96,0.01,,SKC,0.02,VWS V14.01,2013-02-13 13:15:00,
2013-02-13 11:29:00,41.3,40.0,29.76,NE,44,1.0,2.0,96,0.01,,,0.02,weatherlink.com 1.10,2013-02-13 13:29:00,
2013-02-13 11:30:00,41.0,40.2,29.75,NE,45,1.0,2.0,96,0.01,,SKC,0.02,VWS V14.01,2013-02-13 13:30:00,
2013-02-13 11:44:00,41.3,40.0,29.76,North,355,1.0,4.0,96,0.00,,,0.02,weatherlink.com 1.10,2013-02-13 13:44:00,
2013-02-13 11:45:00,41.0,40.2,29.75,NE,45,2.0,4.0,96,0.01,,SKC,0.02,VWS V14.01,2013-02-13 13:45:00,
2013-02-13 11:59:00,41.3,40.0,29.77,North,5,2.0,4.0,96,0.00,,,0.02,weatherlink.com 1.10,2013-02-13 13:59:00,
2013-02-13 12:00:00,41.0,40.2,29.77,North,0,2.0,4.0,96,0.00,,SKC,0.02,VWS V14.01,2013-02-13 14:00:00,
2013-02-13 12:14:00,41.5,41.0,29.77,NNW,330,2.0,3.0,96,0.00,,,0.02,weatherlink.com 1.10,2013-02-13 14:14:00,
2013-02-13 12:15:00,42.0,40.3,29.75,North,0,2.0,4.0,96,0.00,,SKC,0.02,VWS V14.01,2013-02-13 14:15:00,
2013-02-13 12:29:00,41.5,41.0,29.76,NNE,17,2.0,3.0,96,0.00,,,0.02,weatherlink.com 1.10,2013-02-13 14:29:00,
2013-02-13 12:30:00,42.0,40.5,29.75,NNE,22,1.0,3.0,96,0.00,,SKC,0.02,VWS V14.01,2013-02-13 14:30:00,
2013-02-13 12:45:00,41.8,41.0,29.74,NNW,347,1.0,4.0,96,0.00,,,0.02,weatherlink.com 1.10,2013-02-13 14:45:00,
2013-02-13 12:59:00,41.8,41.0,29.74,West,260,2.0,3.0,96,0.00,,,0.02,weatherlink.com 1.10,2013-02-13 14:59:00,
2013-02-13 13:00:00,42.0,40.8,29.74,NNW,338,1.0,4.0,96,0.00,,SKC,0.02,VWS V14.01,2013-02-13 15:00:00,
2013-02-13 13:15:00,42.0,41.0,29.75,North,351,0.0,3.0,96,0.00,,,0.02,weatherlink.com 1.10,2013-02-13 15:15:00,
2013-02-13 13:29:00,42.1,41.0,29.75,North,10,2.0,4.0,96,0.00,,,0.02,weatherlink.com 1.10,2013-02-13 15:29:00,
2013-02-13 13:30:00,42.0,41.0,29.75,North,0,1.0,4.0,96,0.00,,SKC,0.02,VWS V14.01,2013-02-13 15:30:00,
2013-02-13 13:44:00,42.3,41.0,29.75,North,9,1.0,2.0,96,0.00,,,0.02,weatherlink.com 1.10,2013-02-13 15:44:00,
2013-02-13 13:45:00,42.0,41.1,29.75,North,0,1.0,2.0,96,0.00,,SKC,0.02,VWS V14.01,2013-02-13 15:45:00,
2013-02-13 13:59:00,42.3,41.0,29.77,North,9,0.0,3.0,96,0.00,,,0.02,weatherlink.com 1.10,2013-02-13 15:59:00,
2013-02-13 14:00:00,42.0,41.2,29.77,North,0,1.0,3.0,96,0.00,,SKC,0.02,VWS V14.01,2013-02-13 16:00:00,
2013-02-13 14:15:00,42.5,42.0,29.75,SSE,155,0.0,2.0,96,0.00,,,0.02,weatherlink.com 1.10,2013-02-13 16:15:00,
2013-02-13 14:29:00,42.8,42.0,29.76,SSE,155,0.0,2.0,96,0.00,,,0.02,weatherlink.com 1.10,2013-02-13 16:29:00,
2013-02-13 14:30:00,43.0,41.6,29.75,SSE,158,1.0,2.0,96,0.00,,SKC,0.02,VWS V14.01,2013-02-13 16:30:00,
2013-02-13 14:45:00,42.9,42.0,29.74,SSE,155,1.0,1.0,96,0.00,,,0.02,weatherlink.com 1.10,2013-02-13 16:45:00,
2013-02-13 15:00:00,43.3,42.0,29.74,SSE,156,2.0,3.0,96,0.00,,,0.02,weatherlink.com 1.10,2013-02-13 17:00:00,
2013-02-13 15:14:00,43.4,42.0,29.74,South,187,3.0,4.0,95,0.00,,,0.02,weatherlink.com 1.10,2013-02-13 17:14:00,
2013-02-13 15:15:00,43.0,42.1,29.75,SSE,158,2.0,4.0,95,0.00,,SKC,0.02,VWS V14.01,2013-02-13 17:15:00,
2013-02-13 15:30:00,43.5,43.0,29.75,South,178,0.0,4.0,96,0.00,,,0.02,weatherlink.com 1.10,2013-02-13 17:30:00,
2013-02-13 15:44:00,43.5,43.0,29.74,SSW,201,3.0,4.0,96,0.00,,,0.02,weatherlink.com 1.10,2013-02-13 17:44:00,
2013-02-13 15:45:00,44.0,42.4,29.74,SSW,202,2.0,4.0,96,0.00,,SKC,0.02,VWS V14.01,2013-02-13 17:45:00,
2013-02-13 15:59:00,43.7,43.0,29.73,SW,219,2.0,3.0,96,0.00,,,0.02,weatherlink.com 1.10,2013-02-13 17:59:00,
2013-02-13 16:00:00,44.0,42.5,29.73,SSW,202,1.0,3.0,96,0.00,,SKC,0.02,VWS V14.01,2013-02-13 18:00:00,
2013-02-13 16:15:00,44.2,43.0,29.73,SW,221,2.0,6.0,96,0.00,,,0.02,weatherlink.com 1.10,2013-02-13 18:15:00,
2013-02-13 16:29:00,45.3,44.0,29.73,South,184,3.0,11.0,96,0.00,,,0.02,weatherlink.com 1.10,2013-02-13 18:29:00,
2013-02-13 16:30:00,46.0,43.7,29.73,SSW,202,4.0,11.0,96,0.00,,SKC,0.02,VWS V14.01,2013-02-13 18:30:00,
2013-02-13 16:45:00,47.0,46.0,29.72,South,184,8.0,11.0,95,0.00,,,0.02,weatherlink.com 1.10,2013-02-13 18:45:00,
2013-02-13 17:00:00,47.9,46.0,29.72,South,180,6.0,13.0,92,0.00,,,0.02,weatherlink.com 1.10,2013-02-13 19:00:00,
2013-02-13 17:15:00,48.5,46.0,29.71,SE,143,3.0,13.0,91,0.00,,,0.02,weatherlink.com 1.10,2013-02-13 19:15:00,
2013-02-13 17:30:00,49.5,46.0,29.70,SSW,195,7.0,14.0,86,0.00,,,0.02,weatherlink.com 1.10,2013-02-13 19:30:00,
2013-02-13 17:45:00,49.8,45.0,29.70,SSW,202,8.0,17.0,83,0.01,,,0.03,weatherlink.com 1.10,2013-02-13 19:45:00,
2013-02-13 18:00:00,49.8,44.0,29.72,WSW,250,8.0,22.0,79,0.01,,,0.03,weatherlink.com 1.10,2013-02-13 20:00:00,
2013-02-13 18:15:00,49.1,43.0,29.71,SSW,205,10.0,20.0,80,0.01,,,0.03,weatherlink.com 1.10,2013-02-13 20:15:00,
2013-02-13 18:30:00,48.5,44.0,29.73,South,182,12.0,17.0,83,0.01,,,0.03,weatherlink.com 1.10,2013-02-13 20:30:00,
2013-02-13 18:45:00,47.4,43.0,29.73,SSW,193,4.0,15.0,85,0.00,,,0.03,weatherlink.com 1.10,2013-02-13 20:45:00,
2013-02-13 19:00:00,46.9,43.0,29.74,SW,219,6.0,17.0,85,0.00,,,0.03,weatherlink.com 1.10,2013-02-13 21:00:00,
2013-02-13 19:15:00,48.2,43.0,29.73,SSW,194,8.0,16.0,82,0.00,,,0.03,weatherlink.com 1.10,2013-02-13 21:15:00,
2013-02-13 19:30:00,47.1,43.0,29.74,SSW,198,7.0,13.0,84,0.00,,,0.03,weatherlink.com 1.10,2013-02-13 21:30:00,
2013-02-13 19:45:00,46.8,42.0,29.75,SSW,202,9.0,18.0,82,0.00,,,0.03,weatherlink.com 1.10,2013-02-13 21:45:00,
2013-02-13 20:00:00,46.5,41.0,29.76,SW,215,5.0,15.0,82,0.00,,,0.03,weatherlink.com 1.10,2013-02-13 22:00:00,
2013-02-13 20:15:00,46.3,42.0,29.76,SSW,202,4.0,12.0,84,0.00,,,0.03,weatherlink.com 1.10,2013-02-13 22:15:00,
2013-02-13 20:30:00,45.9,41.0,29.77,SSW,194,6.0,12.0,84,0.00,,,0.03,weatherlink.com 1.10,2013-02-13 22:30:00,
2013-02-13 20:45:00,45.3,41.0,29.78,SSW,198,9.0,13.0,85,0.00,,,0.03,weatherlink.com 1.10,2013-02-13 22:45:00,
2013-02-13 21:00:00,44.8,41.0,29.79,SSW,203,4.0,10.0,86,0.00,,,0.03,weatherlink.com 1.10,2013-02-13 23:00:00,
2013-02-13 21:15:00,44.2,41.0,29.79,WSW,247,2.0,8.0,88,0.00,,,0.03,weatherlink.com 1.10,2013-02-13 23:15:00,
2013-02-13 21:30:00,44.0,40.0,29.80,West,269,1.0,11.0,86,0.00,,,0.03,weatherlink.com 1.10,2013-02-13 23:30:00,
2013-02-13 21:45:00,44.2,39.0,29.82,WSW,254,3.0,12.0,81,0.00,,,0.03,weatherlink.com 1.10,2013-02-13 23:45:00,
2013-02-13 22:00:00,43.3,38.0,29.82,WSW,258,2.0,12.0,80,0.00,,,0.03,weatherlink.com 1.10,2013-02-14 00:00:00,
2013-02-13 22:15:00,42.8,36.0,29.82,SW,227,10.0,14.0,78,0.00,,,0.03,weatherlink.com 1.10,2013-02-14 00:15:00,
2013-02-13 22:30:00,42.1,35.0,29.82,WSW,246,7.0,17.0,77,0.00,,,0.03,weatherlink.com 1.10,2013-02-14 00:30:00,
2013-02-13 22:45:00,41.5,35.0,29.84,WSW,237,8.0,13.0,77,0.00,,,0.03,weatherlink.com 1.10,2013-02-14 00:45:00,
2013-02-13 23:00:00,40.7,35.0,29.83,SW,224,4.0,13.0,79,0.00,,,0.03,weatherlink.com 1.10,2013-02-14 01:00:00,
2013-02-13 23:15:00,40.9,35.0,29.84,West,261,3.0,16.0,78,0.00,,,0.03,weatherlink.com 1.10,2013-02-14 01:15:00,
2013-02-13 23:30:00,40.4,34.0,29.85,West,277,2.0,9.0,78,0.00,,,0.03,weatherlink.com 1.10,2013-02-14 01:30:00,
2013-02-13 23:45:00,40.1,34.0,29.86,SW,219,4.0,11.0,78,0.00,,,0.03,weatherlink.com 1.10,2013-02-14 01:45:00,